N1JFY Weather Reports


time (UTC)temp
F
wind
direction
speed
knots
gust
knots
rain 1hr
in
rain 24hr
in
rain mn
in
humidity
%
barometer
mb
20260510050035 41 133 0.0 0.0 0.01 0.01 0.01 92 1012.6
20260510044534 41 119 0.0 0.0 0.00 0.00 0.00 92 1012.6
20260510043033 41 126 1.7 6.1 0.00 0.00 0.00 91 1012.6
20260510041535 41 167 0.0 2.6 0.00 0.00 0.00 91 1013.0
20260510040028 41 171 2.6 9.6 0.00 0.00 0.00 90 1013.0
20260510034528 41 165 2.6 9.6 0.00 0.00 0.00 88 1013.3
20260510033026 42 152 4.3 9.6 0.00 0.00 0.00 86 1013.4
20260510031526 42 131 7.0 11.3 0.00 0.00 0.00 84 1013.5
20260510030033 42 169 7.0 13.0 0.00 0.00 0.00 82 1013.7
20260510024533 43 148 6.1 11.3 0.00 0.00 0.00 81 1013.9
20260510023024 43 126 2.6 8.7 0.00 0.00 0.00 80 1014.0
20260510021532 43 159 6.1 10.4 0.00 0.00 0.00 79 1014.1
20260510020024 43 163 4.3 9.6 0.00 0.00 0.00 77 1014.2
20260510014523 44 140 6.1 10.4 0.00 0.00 0.00 75 1014.2
20260510013023 44 170 7.0 13.9 0.00 0.00 0.00 74 1014.4
20260510011522 44 199 6.1 12.2 0.00 0.00 0.00 72 1014.4
20260510010021 45 182 6.1 13.9 0.00 0.00 0.00 70 1014.2
20260510004519 45 168 5.2 10.4 0.00 0.00 0.00 66 1014.1
20260510003022 46 183 5.2 11.3 0.00 0.00 0.00 64 1013.9
20260510001516 47 151 7.0 12.2 0.00 0.00 0.00 62 1013.6
20260510000015 47 138 7.0 13.9 0.00 0.00 0.00 60 1013.4
20260509234527 48 193 6.1 9.6 0.00 0.00 0.00 56 1013.4
20260509233013 49 185 6.1 13.0 0.00 0.00 0.00 54 1013.2
20260509231514 50 194 7.0 13.0 0.00 0.00 0.00 51 1013.1
20260509230013 50 164 7.8 16.5 0.00 0.00 0.00 48 1012.8
20260509224512 51 190 5.2 15.6 0.00 0.00 0.00 46 1012.7
20260509223015 52 236 7.0 18.2 0.00 0.00 0.00 45 1012.5
20260509221513 53 178 4.3 20.9 0.00 0.00 0.00 43 1012.3
20260509220014 54 186 9.6 21.7 0.00 0.00 0.00 41 1012.1
20260509214510 55 251 4.3 14.8 0.00 0.00 0.00 40 1011.9
20260509213010 56 175 7.0 13.9 0.00 0.00 0.00 36 1011.9
20260509211509 56 173 3.5 13.0 0.00 0.00 0.00 35 1011.9
20260509210009 57 144 1.7 10.4 0.00 0.00 0.00 34 1011.9
20260509204507 56 144 6.1 13.0 0.00 0.00 0.00 36 1011.8
20260509203008 57 205 3.5 9.6 0.00 0.00 0.00 33 1011.9
20260509201506 56 219 2.6 11.3 0.00 0.00 0.00 36 1011.9
20260509200006 56 117 4.3 11.3 0.00 0.00 0.00 33 1011.9
20260509194505 56 179 2.6 14.8 0.00 0.00 0.00 35 1012.0
20260509193006 56 141 7.8 18.2 0.00 0.00 0.00 35 1012.1
20260509191506 56 243 1.7 10.4 0.00 0.00 0.00 36 1012.0
20260509190006 56 190 6.1 13.0 0.00 0.00 0.00 33 1012.2
20260509184502 56 155 0.0 10.4 0.00 0.00 0.00 35 1012.1
20260509183002 56 223 6.1 13.9 0.00 0.00 0.00 34 1012.3
20260509181501 57 217 2.6 10.4 0.00 0.00 0.00 37 1012.1
20260509180109 56 166 3.5 9.6 0.00 0.00 0.00 39 1012.3
20260509174554 55 232 4.3 15.6 0.00 0.00 0.00 39 1012.5
20260509173057 54 200 2.6 15.6 0.00 0.00 0.00 37 1012.6
20260509171556 55 195 2.6 14.8 0.00 0.00 0.00 41 1012.7
20260509170058 53 224 4.3 11.3 0.00 0.00 0.00 40 1012.8
20260509164549 53 221 6.1 11.3 0.00 0.00 0.00 40 1012.8
20260509163105 53 218 1.7 13.0 0.00 0.00 0.00 44 1012.9
20260509161547 53 225 8.7 14.8 0.00 0.00 0.00 42 1013.0
20260509160049 52 261 1.7 15.6 0.00 0.00 0.00 45 1013.0
20260509154547 53 232 7.0 13.0 0.00 0.00 0.00 42 1013.0
20260509153044 52 211 6.1 13.0 0.00 0.00 0.00 43 1013.0
20260509151547 52 207 2.6 10.4 0.00 0.00 0.00 44 1013.1
20260509150044 52 205 6.1 12.2 0.00 0.00 0.00 41 1013.1
20260509144544 52 193 4.3 9.6 0.00 0.00 0.00 48 1013.1
20260509143048 52 153 6.1 10.4 0.00 0.00 0.00 48 1013.1
20260509141543 52 215 0.9 6.1 0.00 0.00 0.00 51 1013.2
20260509140046 51 192 2.6 9.6 0.00 0.00 0.00 52 1013.2
20260509134536 51 189 3.5 8.7 0.00 0.00 0.00 50 1013.4
20260509133033 50 202 0.9 9.6 0.00 0.00 0.00 57 1013.2
20260509131537 50 216 0.9 7.0 0.00 0.00 0.00 52 1013.2
20260509130031 49 236 2.6 9.6 0.00 0.00 0.00 54 1013.0
20260509124534 49 217 4.3 8.7 0.00 0.00 0.00 53 1012.9
20260509123035 48 151 0.0 7.8 0.00 0.00 0.00 58 1012.8
20260509121522 48 184 0.0 7.0 0.00 0.00 0.00 54 1012.7
20260509120018 47 244 0.9 8.7 0.00 0.00 0.00 59 1012.7
20260509114517 46 199 0.9 6.1 0.00 0.00 0.00 61 1012.7
20260509113012 45 211 2.6 7.0 0.00 0.00 0.00 63 1012.6
20260509111507 42 215 0.0 0.0 0.00 0.00 0.00 74 1012.5
20260509110008 42 216 0.0 5.2 0.00 0.00 0.00 71 1012.4
20260509104511 40 229 0.0 0.9 0.00 0.00 0.00 72 1012.3
20260509103002 40 243 0.0 5.2 0.00 0.00 0.00 75 1012.1
20260509101502 39 246 2.6 7.0 0.00 0.00 0.00 75 1012.0
20260509100114 39 222 2.6 7.8 0.00 0.00 0.00 74 1011.7
20260509094604 38 219 0.9 6.1 0.00 0.00 0.00 76 1011.6
20260509093108 37 236 3.5 7.0 0.00 0.00 0.00 79 1011.4
20260509091605 36 240 4.3 8.7 0.00 0.00 0.00 82 1011.2
20260509090155 35 205 4.3 8.7 0.00 0.00 0.00 84 1011.2
20260509084550 36 202 6.1 8.7 0.00 0.00 0.00 83 1011.2
20260509083048 36 210 2.6 5.2 0.00 0.00 0.00 82 1011.1
20260509081556 32 219 0.0 0.0 0.00 0.00 0.00 90 1010.9
20260509080049 32 204 0.0 0.0 0.00 0.00 0.00 88 1010.7
20260509074543 32 261 0.0 0.0 0.00 0.00 0.00 88 1010.5
20260509073045 32 282 0.0 0.0 0.00 0.00 0.00 86 1010.5
20260509071536 34 284 0.0 0.0 0.00 0.00 0.00 81 1010.4
20260509070033 39 284 0.0 5.2 0.00 0.00 0.00 71 1010.4
20260509064532 40 277 3.5 7.8 0.00 0.00 0.00 71 1010.3
20260509063034 41 280 2.6 6.1 0.00 0.00 0.00 71 1010.2
20260509061538 40 267 3.5 8.7 0.00 0.00 0.00 72 1010.0
20260509060024 38 277 2.6 6.1 0.00 0.00 0.00 78 1010.0
20260509054521 39 254 1.7 5.2 0.00 0.00 0.00 76 1010.0
20260509053030 42 247 2.6 7.0 0.00 0.00 0.00 70 1009.8
20260509051517 42 290 6.1 13.0 0.00 0.00 0.00 69 1009.7